Russell, KS

5:04 PM CDT on April 26, 2017 (GMT -0500)
Russell Municipal

Weather History for KRSL - October, 2012

Change the Weather History Date:

Tuesday, October 9, 2012

  Actual Average Record
Temperature  
Mean Temperature 49 °F -  
Max Temperature 62 °F 66 °F 90 °F (1963)
Min Temperature 37 °F 43 °F 24 °F (2000)
Degree Days  
Heating Degree Days 16    
Moisture  
Dew Point 33 °F    
Average Humidity 53    
Maximum Humidity 82    
Minimum Humidity 30    
Precipitation  
Precipitation 0.00 in - - ()
Sea Level Pressure  
Sea Level Pressure 29.95 in    
Wind  
Wind Speed 14 mph (NNW)    
Max Wind Speed 24 mph    
Max Gust Speed 34 mph    
Visibility 10 miles    
Events      
Averages and records for this station are not official NWS values.
T = Trace of Precipitation, MM = Missing Value Source: NWS Daily Summary

Daily Weather History Graph

Daily Weather History Graph

Search for Another Location

Airport or City:

Trip Planner

Search our weather history database for the weather conditions in past years. The results will help you decide how hot, cold, wet, or windy it might be!

Date:

Astronomy

Oct. 09, 2012 Rise Set
Actual Time 7:39 AM CDT 7:04 PM CDT
Civil Twilight 7:12 AM CDT 7:31 PM CDT
Nautical Twilight 6:41 AM CDT 8:02 PM CDT
Astronomical Twilight 6:10 AM CDT 8:33 PM CDT
Moon 1:20 AM CDT (10/9) 3:30 PM CDT (10/9)
Length of Visible Light 12h 18m
Length of Day
11h 25m
Last Quarter, 36% of the Moon is Illuminated
Oct 9
Last Quarter
Oct 15
New
Oct 21
First Quarter
Oct 29
Full
Nov 6
Last Quarter

Hourly Weather History & Observations

Time (CDT) Temp. Windchill Dew Point Humidity Pressure Visibility Wind Dir Wind Speed Gust Speed Precip Events Conditions
12:53 AM 52.0 °F - 34.0 °F 50% 29.84 in 10.0 mi South 18.4 mph - N/A   Clear
1:53 AM 50.0 °F - 35.1 °F 57% 29.81 in 10.0 mi South 16.1 mph - N/A   Clear
2:53 AM 48.2 °F - 35.6 °F 62% 29.83 in 10.0 mi SSW 15.0 mph - N/A   Clear
4:53 AM 45.0 °F 38.9 °F 35.1 °F 68% 29.78 in 10.0 mi SSW 12.7 mph - N/A   Clear
5:53 AM 44.1 °F 37.7 °F 34.0 °F 68% 29.78 in 10.0 mi South 12.7 mph - N/A   Clear
6:53 AM 41.0 °F - 34.0 °F 76% 29.81 in 10.0 mi Calm Calm - N/A   Clear
7:53 AM 37.0 °F 31.6 °F 32.0 °F 82% 29.86 in 10.0 mi NW 6.9 mph - N/A   Clear
8:53 AM 44.1 °F 40.8 °F 35.1 °F 71% 29.88 in 10.0 mi NW 5.8 mph - N/A   Clear
9:53 AM 50.0 °F - 37.0 °F 61% 29.88 in 10.0 mi Calm Calm - N/A   Clear
10:53 AM 55.9 °F - 37.0 °F 49% 29.91 in 10.0 mi NNW 13.8 mph - N/A   Clear
11:53 AM 57.0 °F - 37.9 °F 49% 29.93 in 10.0 mi NNE 24.2 mph 31.1 mph N/A   Clear
12:53 PM 60.1 °F - 41.0 °F 49% 29.94 in 10.0 mi NNE 24.2 mph 34.5 mph N/A   Partly Cloudy
2:53 PM 61.0 °F - 37.0 °F 41% 29.99 in 10.0 mi NNE 24.2 mph 29.9 mph N/A   Scattered Clouds
3:53 PM 61.0 °F - 37.0 °F 41% 30.01 in 10.0 mi North 20.7 mph 25.3 mph N/A   Clear
4:53 PM 61.0 °F - 35.1 °F 38% 30.02 in 10.0 mi NE 16.1 mph 24.2 mph N/A   Clear
5:53 PM 60.1 °F - 32.0 °F 35% 30.04 in 10.0 mi NNE 17.3 mph - N/A   Clear
6:53 PM 55.9 °F - 25.0 °F 30% 30.07 in 10.0 mi North 11.5 mph - N/A   Clear
7:53 PM 50.0 °F - 25.0 °F 38% 30.12 in 10.0 mi North 9.2 mph - N/A   Clear
8:53 PM 45.0 °F 40.6 °F 23.0 °F 42% 30.15 in 10.0 mi NNE 8.1 mph - N/A   Clear
10:53 PM 37.9 °F 34.4 °F 21.9 °F 53% 30.19 in 10.0 mi WNW 4.6 mph - N/A   Clear
11:53 PM 39.9 °F 37.8 °F 26.1 °F 58% 30.21 in 10.0 mi WNW 3.5 mph - N/A   Clear